Wetbulb
54.16 51.10 49.63 53.00 54.89 59.22 56.40 55.65 55.34 58.34 61.23 60.53 58.80 61.58 63.29 64.81 63.92 63.37 62.72 63.18 63.89 64.83 66.09 67.67 68.07 68.93 71.19 70.92 69.89 69.84 70.35 71.58 73.65 72.82 71.65 71.20 70.84 71.23 72.78 74.51 74.27 74.54 73.58 74.52
50.36 48.42 54.37 56.90 56.70 58.17 57.10 55.23 55.44 58.35 61.19 60.30 58.21 61.82 63.75 63.57 63.39 63.76 63.64 63.22 64.10 64.29 65.22 67.06 67.49 68.71 70.48 70.87 71.10 71.01 71.10 73.06 72.70 72.20 71.74 72.31 71.75 72.55 72.99 74.96 74.83 74.32 74.06 74.34
46.79 51.19 56.04 54.91 54.80 57.22 56.16 54.00 56.02 56.56 59.47 58.83 56.13 59.12 61.98 63.40 64.11 64.87 65.05 65.26 65.13 64.57 64.82 66.81 67.25 68.40 69.50 70.58 71.57 71.74 72.11 72.48 73.00 72.75 72.93 70.79 69.62 72.74 72.14 72.37 72.48 73.72 74.76 74.52
47.40 52.27 52.64 51.97 51.31 53.72 50.98 59.36 56.32 55.38 52.07 49.17 54.46 45.28 54.26 58.56 60.56 61.31 61.78 64.36 64.92 65.19 66.21 67.27 67.51 67.46 68.91 70.67 72.13 72.86 72.89 72.73 73.88 74.77 72.93 70.79 68.33 69.60 70.87 71.53 72.20 71.05 73.91 74.76
46.30 48.48 48.86 48.96 51.20 53.36 50.88 55.90 54.47 54.16 50.43 47.51 51.26 46.29 52.38 57.43 56.78 57.51 60.28 64.34 65.98 65.77 66.34 66.93 67.65 68.30 69.68 71.86 72.17 71.90 74.43 74.16 73.30 74.32 72.78 71.76 70.10 71.15 72.46 72.41 71.72 71.33 73.01 75.04
48.36 52.26 49.56 48.62 51.61 51.54 52.79 50.72 50.07 49.83 47.10 42.05 47.90 47.17 50.68 52.82 57.42 59.42 62.39 62.41 66.03 66.29 66.89 67.41 68.77 69.19 69.55 72.20 72.77 72.50 73.41 73.59 74.02 73.68 73.99 72.11 71.66 71.73 71.07 70.82 70.12 70.71 71.63 73.55
47.64 48.89 50.65 51.09 46.94 50.06 48.35 42.92 39.19 39.87 40.25 40.50 47.53 45.38 48.27 58.24 59.87 60.20 60.73 62.15 64.15 66.84 67.13 67.19 67.94 68.49 69.25 70.47 72.07 73.21 72.75 73.62 74.17 73.77 75.00 73.55 72.44 72.04 71.44 71.52 70.44 70.63 71.02 72.29
40.92 42.14 47.31 50.94 47.95 45.77 44.86 44.76 38.63 35.88 37.47 40.84 44.75 41.97 52.34 61.42 63.21 62.35 62.57 63.38 63.93 65.00 67.38 67.65 68.47 69.06 69.42 70.84 71.18 73.13 72.62 73.30 74.48 73.99 73.76 75.28 74.06 73.20 72.08 71.96 71.07 72.14 71.45 72.28
44.65 45.52 53.24 52.43 50.70 49.28 45.68 43.27 44.99 38.70 38.44 38.36 41.85 46.90 56.36 57.86 57.79 60.05 59.79 63.08 63.67 63.48 67.23 68.33 68.97 69.75 69.81 70.94 71.27 72.07 72.80 73.41 74.47 74.60 74.69 74.47 74.68 73.25 72.60 71.74 73.16 72.05 72.87 72.82
48.32 43.72 50.12 51.68 51.99 50.16 49.21 51.02 40.40 39.75 35.83 35.43 40.85 42.19 43.83 54.56 55.85 58.20 57.94 60.34 62.27 64.93 67.94 68.61 69.50 70.11 70.67 71.72 72.15 72.95 73.91 73.83 74.49 75.83 75.47 74.49 75.72 74.56 73.95 73.30 72.88 72.35 71.93 71.93
49.94 47.20 48.64 51.63 47.84 46.30 45.51 43.36 43.81 40.96 39.84 35.59 35.07 40.66 53.44 55.79 57.35 56.61 59.68 60.89 62.43 63.70 68.16 68.47 69.63 70.61 71.18 72.16 72.57 73.95 74.30 74.89 75.06 75.87 75.89 75.22 75.33 75.39 74.35 73.52 72.74 72.32 72.40 72.02
51.69 47.38 43.35 46.72 51.11 53.78 50.14 49.33 45.60 39.70 40.04 40.25 38.45 41.06 49.97 53.38 56.05 59.15 59.46 59.22 61.69 63.65 68.02 69.27 69.33 70.39 70.55 71.34 72.30 74.03 74.91 75.44 76.05 76.04 75.93 75.53 75.48 75.42 74.07 72.83 72.58 72.92 71.70 71.12
50.65 45.45 40.14 43.06 46.54 50.57 48.30 49.93 48.30 46.58 45.12 39.53 38.34 41.55 54.54 55.43 59.17 61.70 58.53 59.91 61.84 62.37 63.83 67.41 69.24 69.78 70.20 71.14 72.38 74.43 75.13 75.54 76.10 75.93 75.65 75.31 74.85 74.73 74.57 73.59 73.08 72.19 71.36 70.28
55.65 45.12 42.57 39.21 42.88 47.18 46.66 49.91 49.60 45.99 41.84 42.80 43.29 46.58 50.75 53.23 54.55 58.50 60.71 62.30 62.97 62.98 62.79 63.58 66.96 68.91 70.51 71.31 72.48 74.29 75.15 76.12 76.15 75.43 74.96 74.46 74.58 74.68 74.51 73.57 72.34 71.20 70.47 68.69
49.60 43.77 45.99 48.32 49.48 49.64 48.67 49.26 49.50 46.14 46.34 42.72 46.19 47.17 50.13 51.73 54.46 57.49 59.69 64.08 64.55 64.53 64.65 64.78 64.94 66.64 70.39 70.44 72.01 74.34 74.92 75.77 75.50 74.33 74.18 74.08 74.61 74.66 73.87 71.93 71.05 70.14 69.70 68.77
48.93 43.16 45.57 44.02 47.44 46.78 46.53 49.25 49.73 49.10 48.98 48.39 48.15 48.21 57.01 56.33 60.83 59.97 60.38 63.82 63.78 64.55 66.02 66.64 66.73 66.16 69.59 70.86 72.20 72.95 74.39 75.06 75.07 74.02 73.71 74.18 74.21 73.74 72.26 70.89 69.86 69.17 68.51 67.06
43.52 42.18 41.97 38.56 46.15 45.64 42.70 47.59 48.89 49.41 50.45 48.72 46.18 49.96 57.63 58.36 58.41 58.23 59.43 59.89 58.70 64.67 68.13 67.73 67.85 66.71 66.41 72.60 73.57 73.01 73.86 75.00 74.55 74.02 73.77 74.11 74.16 72.40 71.05 69.97 68.63 67.91 66.52 65.04
42.63 42.06 42.25 39.96 42.10 35.39 45.21 50.82 52.23 51.10 52.57 54.88 56.07 56.52 57.70 59.61 57.72 57.90 59.17 58.75 59.06 57.90 67.33 70.30 71.30 71.71 67.35 70.66 74.14 74.24 74.48 74.60 74.21 74.18 73.61 74.32 72.91 71.22 69.70 68.83 67.37 66.20 64.36 62.59
47.88 43.71 40.09 38.30 38.37 42.92 47.49 50.49 52.42 52.04 51.75 60.02 58.49 58.61 56.71 59.43 58.58 58.58 60.35 60.12 59.80 60.12 69.38 70.22 71.81 72.33 73.40 70.58 74.26 74.18 74.83 74.54 74.22 74.18 74.19 73.28 71.76 70.15 68.76 67.53 65.94 64.14 62.38 61.83
49.51 47.42 43.37 41.31 38.63 38.27 47.57 54.31 55.82 55.26 46.27 60.13 60.75 58.15 57.63 57.93 52.85 55.92 62.05 61.50 61.23 67.50 70.10 70.15 71.12 72.16 72.21 73.02 74.72 73.99 73.63 74.42 74.08 74.26 73.69 72.54 70.84 69.51 68.00 66.99 65.48 63.31 61.98 61.58
46.86 48.05 44.91 45.38 43.63 47.44 54.31 57.89 58.02 46.06 50.10 59.72 60.96 59.32 58.02 55.51 57.35 60.55 63.40 66.15 69.24 69.64 69.85 70.41 71.08 70.52 71.02 71.96 73.10 72.81 72.75 73.48 74.52 73.79 72.84 71.25 69.90 68.63 67.75 66.28 64.31 62.59 61.07 60.66
46.26 45.21 44.24 45.08 42.02 41.79 56.92 56.14 51.55 52.49 55.66 57.03 60.21 59.96 58.32 57.53 59.55 60.11 61.40 61.67 63.61 68.33 69.46 69.78 68.80 69.14 70.47 70.90 70.56 71.82 72.14 72.83 73.32 72.24 70.78 69.56 68.78 68.74 67.13 64.64 63.42 61.63 60.58 60.39
44.86 47.94 45.15 47.31 46.88 52.52 53.83 53.36 54.77 55.64 55.23 56.07 55.40 59.91 59.52 57.44 57.24 58.50 58.62 59.02 60.32 62.10 68.30 68.52 67.90 67.97 68.72 69.46 70.03 70.22 70.22 70.65 70.49 70.07 69.48 69.10 68.41 67.80 66.03 63.45 61.86 60.00 60.07 59.70
49.33 52.40 47.30 47.75 51.01 52.14 53.59 54.75 54.88 56.22 54.18 54.98 55.35 55.82 58.62 55.13 55.26 54.66 56.03 57.02 58.48 59.89 67.41 68.12 67.25 66.67 66.86 68.33 68.81 68.50 69.96 69.87 70.02 69.71 68.97 67.93 66.35 65.50 64.48 62.35 61.59 59.08 59.17 58.18
48.79 50.00 48.33 47.50 50.15 52.99 53.97 54.31 54.41 54.99 55.56 55.60 55.08 54.98 55.44 56.76 55.25 54.30 54.63 54.65 56.60 59.24 61.19 67.95 67.08 66.25 66.08 66.83 67.46 67.71 68.29 69.26 68.90 69.15 68.18 66.83 65.38 63.31 61.88 61.41 59.46 58.69 60.64 58.64
50.32 48.43 46.13 45.93 51.03 50.50 50.87 52.62 53.32 52.31 53.74 53.97 53.62 52.83 53.63 53.82 53.24 54.06 54.80 54.86 55.08 59.30 60.81 63.45 67.79 67.48 67.08 66.92 66.68 67.57 68.25 69.44 69.15 67.73 66.46 63.91 62.98 61.77 61.34 60.65 57.93 55.81 57.71 55.79
MSLP
1000.02 1000.68 1000.79 1000.84 1001.13 1002.07 1003.53 1004.33 1004.95 1004.02 1002.56 1002.98 1002.04 1002.12 1001.62 1002.12 1002.92 1003.32 1004.14 1004.55 1005.21 1005.62 1005.80 1006.22 1006.54 1007.07 1007.96 1008.80 1009.67 1010.33 1011.00 1011.83 1012.49 1013.37 1014.05 1014.58 1014.86 1014.86 1015.50 1015.14 1015.24 1015.40 1015.34 1015.67
1000.81 1000.54 1000.12 999.86 999.70 1001.30 1002.36 1002.67 1002.51 1002.82 1001.74 1001.28 1000.27 1000.83 1001.16 1001.69 1002.32 1003.31 1003.85 1004.45 1004.94 1005.16 1005.30 1005.87 1006.18 1006.65 1007.57 1008.35 1009.31 1010.10 1010.65 1011.46 1012.14 1012.82 1013.48 1013.94 1014.30 1014.46 1014.61 1014.68 1014.98 1015.10 1015.22 1015.43
1000.75 1000.22 999.53 999.32 999.18 1000.71 1001.05 1000.95 1000.86 1000.90 999.72 999.09 999.17 1000.57 1001.70 1003.32 1003.66 1003.12 1003.53 1003.86 1003.66 1004.10 1004.67 1005.18 1005.86 1006.41 1007.08 1008.10 1008.92 1009.65 1010.35 1011.04 1011.78 1012.46 1013.22 1014.07 1014.45 1014.51 1014.52 1014.83 1014.97 1015.17 1015.11 1015.28
1000.12 999.44 999.12 998.82 998.80 998.98 999.53 999.31 998.81 998.76 998.99 999.36 999.37 1001.59 1002.99 1002.99 1003.13 1001.93 1000.83 1001.82 1002.53 1002.87 1003.68 1004.60 1005.13 1005.92 1006.55 1007.50 1008.44 1009.20 1009.83 1010.56 1011.36 1012.13 1012.88 1013.52 1013.91 1014.45 1014.53 1014.70 1014.94 1015.18 1015.17 1015.30
999.86 999.12 998.71 998.48 998.13 997.86 998.05 997.76 998.30 998.87 999.51 999.87 1000.05 1001.33 1003.11 1003.49 1003.65 1002.89 1002.26 1002.36 1002.01 1001.86 1002.58 1003.56 1004.19 1004.84 1005.72 1006.80 1007.78 1008.62 1009.31 1010.09 1010.83 1011.55 1012.08 1012.79 1013.38 1013.81 1014.01 1014.35 1014.72 1015.05 1015.26 1015.22
999.70 998.61 998.16 997.94 997.77 997.75 997.97 998.27 998.74 999.43 1000.21 1000.97 1000.71 1001.03 1002.57 1003.04 1002.48 1002.45 1001.88 1001.56 1000.83 1001.41 1001.56 1002.49 1003.20 1003.97 1004.98 1005.96 1007.04 1008.03 1008.98 1009.73 1010.31 1010.97 1011.61 1012.31 1012.98 1013.42 1013.92 1014.36 1014.77 1014.93 1015.03 1015.12
999.86 998.98 997.92 997.56 997.83 997.91 998.46 999.62 1000.48 1001.28 1001.33 1001.49 1000.26 1000.32 999.67 1000.69 1000.76 1000.45 1000.78 1001.43 1001.58 1000.49 1000.52 1001.67 1002.66 1003.40 1004.35 1005.31 1006.24 1007.39 1008.37 1009.26 1009.82 1010.44 1011.19 1011.79 1012.33 1012.91 1013.35 1013.84 1014.30 1014.70 1014.92 1015.03
1000.58 999.56 998.55 997.94 997.61 998.05 998.89 999.81 1001.26 1002.00 1002.19 1001.63 1000.29 999.95 999.25 998.48 998.71 999.20 999.74 998.85 997.96 1000.65 1000.54 1000.70 1001.36 1002.31 1003.27 1004.33 1005.34 1006.58 1007.67 1008.54 1009.32 1009.94 1010.65 1011.31 1011.75 1012.30 1012.77 1013.22 1013.68 1014.00 1014.30 1014.56
1000.64 999.85 998.75 997.92 997.45 997.56 998.61 999.45 1000.26 1001.59 1001.82 1001.96 1000.98 1000.36 999.14 999.03 998.86 998.46 998.81 997.53 997.46 999.07 999.92 999.83 1000.50 1001.35 1002.41 1003.48 1004.48 1005.61 1006.99 1007.90 1008.63 1009.38 1010.08 1010.81 1011.34 1011.90 1012.43 1012.79 1013.12 1013.47 1013.84 1014.19
1001.17 1000.95 999.74 998.75 997.84 997.69 998.17 999.11 1000.36 1001.68 1003.05 1002.98 1001.55 1000.00 999.18 998.90 998.67 998.67 998.13 997.83 997.85 998.52 998.60 999.23 999.94 1000.74 1001.67 1002.64 1003.67 1004.97 1006.06 1007.03 1007.86 1008.75 1009.39 1010.11 1010.85 1011.41 1011.91 1012.29 1012.85 1013.13 1013.52 1014.05
1001.96 1002.10 1001.30 999.93 999.47 999.50 999.01 999.56 1000.65 1001.68 1002.89 1003.37 1002.50 1000.94 998.39 997.81 997.54 997.20 996.11 997.71 997.90 996.66 997.75 998.60 999.45 1000.19 1000.87 1001.88 1002.96 1004.32 1005.50 1006.52 1007.41 1008.12 1008.88 1009.65 1010.34 1010.85 1011.38 1011.83 1012.31 1012.75 1013.28 1013.83
1003.15 1003.03 1002.81 1001.45 1000.52 999.79 999.76 1000.28 1000.86 1002.40 1003.07 1002.67 1001.76 999.93 997.95 997.59 996.77 997.04 996.54 996.61 996.83 997.13 997.79 998.19 998.98 999.79 1000.53 1001.37 1002.50 1003.48 1004.78 1005.72 1006.51 1007.10 1008.24 1009.11 1009.68 1010.25 1010.86 1011.35 1011.95 1012.54 1013.26 1013.93
1003.78 1004.12 1004.20 1002.79 1001.35 1000.68 1000.90 1000.87 1001.08 1001.49 1001.84 1002.60 1002.10 1000.22 998.66 997.75 997.35 997.39 997.46 997.03 996.94 996.98 997.29 997.86 998.43 999.29 999.90 1000.67 1001.73 1002.80 1003.82 1004.77 1005.67 1006.71 1007.50 1008.43 1009.16 1009.49 1010.10 1010.84 1011.67 1012.35 1013.12 1013.78
1003.85 1004.77 1005.20 1004.78 1003.82 1002.74 1001.93 1001.40 1001.25 1001.67 1002.28 1002.47 1001.78 1000.72 999.29 999.03 998.45 998.36 998.53 998.55 998.47 998.26 998.15 998.19 998.75 999.19 999.39 1000.01 1000.85 1001.80 1002.80 1003.76 1004.77 1005.84 1006.90 1007.63 1008.32 1008.80 1009.43 1010.40 1011.24 1012.06 1012.78 1013.57
1004.09 1005.05 1005.08 1004.65 1003.74 1002.93 1002.37 1001.77 1001.39 1001.56 1001.64 1002.04 1001.55 1001.28 1000.08 1000.00 999.51 998.94 998.89 999.13 999.37 999.46 999.09 998.85 998.84 999.20 999.16 999.81 1000.51 1001.13 1001.95 1002.95 1003.78 1004.90 1005.71 1006.68 1007.65 1008.43 1009.24 1010.16 1010.99 1011.79 1012.50 1013.25
1004.73 1005.31 1005.36 1005.15 1004.37 1003.65 1002.85 1001.93 1001.28 1001.00 1001.03 1001.08 1001.27 1001.08 1001.56 1000.81 1000.85 1001.87 1002.50 1000.88 1000.36 1000.06 999.79 999.19 999.05 998.96 999.18 999.04 999.82 1000.57 1001.35 1002.30 1003.21 1003.96 1004.68 1005.69 1006.77 1007.93 1008.94 1009.94 1010.79 1011.54 1012.33 1012.87
1005.53 1005.75 1006.19 1005.98 1005.09 1004.21 1003.26 1001.88 1001.25 1000.88 1000.46 1000.91 1001.91 1002.37 1001.92 1002.85 1003.97 1004.04 1003.48 1003.77 1004.31 1004.21 1002.12 1000.69 999.90 999.32 998.92 998.59 998.86 999.93 1000.74 1001.74 1002.59 1003.35 1004.15 1005.05 1006.04 1007.30 1008.51 1009.76 1010.98 1011.78 1012.41 1013.02
1005.03 1005.76 1006.13 1006.38 1005.66 1004.76 1002.85 1001.33 1000.85 1000.49 1000.55 1001.08 1002.20 1002.77 1003.39 1003.93 1004.20 1004.51 1004.25 1004.40 1004.52 1005.58 1005.75 1002.55 1000.84 999.92 999.37 998.93 998.66 998.98 1000.07 1001.10 1002.17 1003.09 1003.89 1004.67 1005.72 1007.16 1008.54 1009.86 1010.93 1011.17 1012.15 1013.10
1003.67 1004.67 1005.77 1006.00 1005.64 1004.31 1002.59 1001.24 1001.09 1000.66 1001.20 1001.50 1002.17 1002.97 1003.44 1003.42 1003.51 1004.27 1003.76 1003.95 1004.46 1004.35 1002.89 1002.24 1001.75 1000.70 999.41 998.96 998.51 998.92 999.55 1000.40 1001.44 1002.46 1003.46 1004.63 1005.85 1007.16 1008.15 1009.30 1009.95 1010.50 1011.86 1012.88
1002.87 1003.55 1005.11 1005.40 1005.18 1004.06 1002.47 1000.99 1000.43 1000.33 1001.34 1001.72 1002.16 1003.02 1003.23 1003.09 1004.20 1004.77 1004.46 1004.11 1004.31 1004.17 1004.44 1002.78 1001.84 1001.28 1000.13 999.00 997.82 998.78 999.48 1000.16 1000.98 1001.88 1003.17 1004.67 1005.81 1006.69 1007.86 1008.76 1009.59 1010.31 1011.58 1012.54
1003.50 1003.80 1004.58 1004.73 1004.38 1003.22 1001.84 1001.18 1000.49 1001.44 1004.09 1002.45 1002.44 1002.92 1003.20 1003.62 1004.11 1003.69 1003.94 1003.70 1004.16 1003.73 1003.19 1002.40 1002.28 1002.15 1001.48 1000.71 999.42 999.41 999.91 1000.41 1001.05 1002.05 1003.09 1004.37 1005.59 1006.58 1007.63 1009.09 1009.59 1010.56 1011.69 1012.88
1004.27 1004.34 1004.56 1004.55 1004.29 1003.48 1002.22 1001.86 1002.65 1003.79 1003.60 1003.53 1002.76 1002.63 1002.86 1002.97 1003.12 1003.12 1003.03 1003.37 1003.34 1002.95 1002.78 1002.68 1002.62 1002.42 1002.39 1002.45 1001.19 1001.40 1001.11 1001.19 1001.73 1002.75 1003.68 1004.61 1005.54 1006.21 1007.33 1008.58 1009.93 1010.69 1011.36 1012.66
1004.96 1005.19 1005.40 1005.19 1004.48 1003.46 1003.07 1003.09 1002.78 1002.75 1003.10 1003.18 1003.13 1002.50 1002.62 1002.83 1003.03 1003.25 1003.26 1003.17 1003.30 1003.72 1003.30 1003.05 1003.01 1003.03 1002.90 1002.76 1002.64 1002.40 1002.56 1002.50 1002.53 1003.10 1004.29 1004.60 1005.68 1006.51 1007.17 1008.24 1009.41 1010.47 1011.41 1012.50
1005.34 1004.93 1005.24 1005.14 1004.09 1003.79 1003.30 1003.10 1003.21 1003.18 1003.13 1002.99 1002.89 1003.10 1002.87 1002.94 1003.03 1003.28 1003.25 1003.35 1003.39 1003.41 1003.46 1003.26 1003.32 1003.31 1003.22 1002.74 1003.23 1003.65 1003.22 1003.22 1003.62 1003.60 1004.50 1005.12 1005.76 1006.66 1007.39 1008.17 1009.18 1010.22 1011.00 1011.88
1006.46 1005.88 1005.25 1004.79 1004.42 1003.89 1003.60 1003.40 1003.36 1003.28 1003.20 1003.12 1003.01 1002.98 1002.96 1003.12 1003.00 1002.91 1003.31 1003.60 1003.46 1003.14 1003.11 1003.32 1003.39 1003.26 1003.25 1003.30 1002.72 1003.28 1003.51 1003.81 1003.92 1004.22 1004.59 1005.01 1005.66 1006.32 1007.35 1008.04 1008.92 1009.55 1010.55 1011.21
1005.88 1005.31 1005.35 1004.73 1004.66 1004.52 1004.38 1003.98 1003.56 1003.47 1003.37 1002.93 1002.99 1003.04 1003.03 1003.10 1003.20 1003.21 1003.21 1003.10 1003.11 1003.10 1002.89 1003.01 1003.10 1003.06 1003.12 1003.11 1003.40 1002.59 1003.64 1003.67 1003.98 1004.30 1004.90 1005.43 1005.95 1006.84 1007.64 1008.06 1009.07 1009.48 1009.74 1010.32
Wind_Speed
9 4 7 13 7 18 13 12 18 24 22 18 19 17 16 14 12 14 12 13 13 13 10 14 14 11 15 16 14 12 10 13 8 7 4 4 4 3 4 6 8 7 6 6
8 8 12 14 18 21 17 10 7 16 27 17 21 16 18 18 14 11 13 12 13 11 12 14 11 13 17 19 16 11 13 13 9 8 4 3 3 3 2 6 6 6 6 6
9 12 13 14 13 15 10 10 11 14 24 8 4 8 19 4 6 9 1 6 14 16 15 17 14 14 13 13 16 14 14 13 10 9 5 3 3 0 3 3 3 3 6 5
8 13 16 15 11 9 10 21 8 8 3 2 2 2 2 4 6 7 21 10 17 19 16 16 17 13 14 15 15 15 16 15 9 9 7 7 5 4 3 4 4 3 3 3
13 9 9 11 12 9 8 8 6 8 8 6 5 6 5 6 5 8 18 11 19 19 19 20 21 17 14 17 16 15 15 15 10 9 9 6 6 4 3 4 7 5 4 5
11 12 7 7 6 6 9 9 11 7 3 5 10 6 7 8 12 14 20 16 14 18 20 22 21 18 16 17 17 16 15 16 13 10 9 10 9 7 6 5 5 4 3 4
9 14 10 6 6 8 7 7 5 6 5 8 12 3 10 22 16 16 22 12 15 16 20 22 21 19 17 20 20 18 18 14 14 12 9 10 9 8 9 8 6 6 4 3
5 10 5 8 9 10 8 4 6 4 4 8 8 6 4 13 15 12 12 8 10 12 14 23 24 21 20 22 21 19 19 17 15 14 14 9 8 6 6 8 6 7 7 7
6 10 14 13 5 12 7 3 8 2 6 4 5 7 5 5 6 14 13 12 18 16 17 22 24 22 21 21 23 20 20 17 17 15 12 10 10 8 8 8 6 5 5 6
8 9 8 11 9 7 2 5 7 5 4 7 8 8 4 6 6 5 10 4 11 19 22 19 22 20 20 19 21 19 21 21 19 15 14 12 9 8 8 8 7 7 7 7
9 6 12 8 5 7 6 2 3 4 6 4 3 9 2 5 14 7 19 23 10 12 21 19 16 17 21 17 20 19 19 19 18 16 14 13 10 9 7 9 7 8 7 10
8 4 6 11 6 12 6 9 2 7 10 5 6 11 6 8 5 14 23 15 9 6 17 19 17 16 19 17 19 19 18 18 18 18 15 13 12 11 9 9 9 11 11 8
6 5 6 14 10 15 7 9 8 5 4 4 3 9 8 10 15 13 5 14 5 7 7 13 18 15 19 17 19 19 19 18 17 16 15 14 13 13 12 11 11 12 12 10
7 3 6 6 10 6 9 13 10 5 3 6 5 10 10 8 6 9 9 8 8 8 8 6 10 11 17 18 20 19 19 19 18 17 15 15 16 15 13 12 13 13 12 11
3 5 6 9 9 10 11 14 13 8 8 3 11 10 13 8 4 9 9 9 9 9 10 9 7 5 14 16 17 18 19 19 19 19 17 16 14 12 12 14 14 13 13 11
8 7 7 6 9 11 12 10 9 9 7 8 9 15 7 10 25 26 26 9 8 7 6 7 7 7 10 17 16 17 19 18 18 18 17 17 16 12 14 14 13 13 12 12
5 4 5 6 9 10 8 9 9 9 8 5 6 2 7 18 17 15 14 14 21 30 13 10 10 6 5 12 17 18 17 17 18 16 15 16 16 17 16 14 13 12 12 11
8 5 3 6 5 6 11 9 10 10 6 7 8 4 7 10 10 9 11 18 25 36 29 16 14 17 8 5 12 16 16 17 15 14 14 15 17 17 15 15 12 13 11 10
13 6 3 4 5 8 9 9 10 4 6 7 7 5 3 6 4 7 8 11 10 16 23 13 13 16 15 8 13 17 17 18 16 14 14 15 16 17 17 16 15 13 12 9
8 9 7 2 4 7 8 14 9 6 1 6 12 9 7 7 7 4 11 6 12 11 8 11 13 15 18 22 15 16 16 14 15 14 15 15 15 17 15 14 15 12 11 11
4 2 3 4 4 5 5 9 9 3 5 7 10 6 3 3 4 2 1 1 1 3 5 8 9 10 12 18 3 11 11 11 10 14 16 16 16 16 13 10 9 9 10 8
1 1 3 2 3 6 9 8 7 8 7 8 3 6 5 4 5 6 8 6 7 6 6 7 7 8 8 13 11 7 4 6 13 14 15 16 16 13 13 15 10 11 11 8
4 3 2 2 4 5 9 7 3 3 2 5 9 3 5 5 6 6 5 6 6 8 2 4 5 6 5 7 8 7 4 7 12 14 13 13 12 11 13 15 13 11 9 8
8 6 1 5 7 8 9 6 11 8 6 7 5 7 8 4 6 5 5 6 6 4 6 0 2 5 6 5 6 2 3 4 8 11 12 11 13 12 11 9 10 9 8 7
5 8 6 7 7 7 7 8 7 7 7 6 5 6 5 6 6 4 2 3 6 6 4 3 4 3 3 1 4 1 3 5 6 8 8 11 9 13 12 10 10 10 8 9
7 10 6 10 8 3 3 8 10 11 9 5 4 4 6 5 6 5 5 4 3 7 5 3 6 7 7 6 5 8 5 6 8 7 8 8 10 9 8 9 5 4 7 13
Wind_Direction
287 212 242 256 270 154 124 107 307 311 288 270 239 205 183 187 175 164 172 173 186 189 194 173 174 173 168 159 165 168 138 162 141 151 139 154 185 184 190 191 177 177 166 162
298 265 253 262 272 141 144 176 189 209 262 261 268 169 178 176 178 162 172 174 190 190 185 173 172 177 157 165 166 156 152 156 150 160 160 143 139 223 166 161 159 173 151 132
230 255 268 268 272 152 188 203 245 211 238 252 285 142 156 61 94 123 67 245 188 192 186 173 178 174 151 155 161 156 159 163 159 169 123 95 104 228 87 136 105 127 128 127
233 248 266 279 278 257 223 222 286 319 28 266 47 215 122 182 176 170 220 215 202 187 182 173 174 170 163 163 159 157 164 169 165 159 151 153 156 155 181 160 143 140 155 170
264 273 262 272 273 292 275 298 331 327 331 19 300 81 252 184 188 197 245 235 217 184 179 177 177 174 167 162 163 164 158 167 175 155 154 150 158 176 161 145 136 151 178 226
261 279 267 256 305 354 341 353 338 324 359 345 260 166 249 190 191 211 232 236 213 186 182 178 175 172 169 162 162 167 162 172 171 169 160 169 173 160 150 147 150 162 180 182
283 269 271 276 311 338 348 355 330 339 346 230 258 295 227 198 192 197 214 229 272 197 181 173 176 177 173 171 167 168 170 171 173 173 167 175 176 167 164 160 168 169 174 187
247 312 289 289 186 201 245 184 159 284 272 266 328 295 189 164 190 182 182 239 177 240 196 177 178 178 181 173 172 167 174 173 175 178 182 175 177 173 172 168 178 191 181 181
11 320 330 325 289 164 254 282 235 301 290 13 279 346 6 83 169 208 187 192 220 218 219 179 178 178 183 173 174 171 175 178 176 178 178 183 184 164 169 184 188 175 151 147
323 339 312 306 356 350 118 232 2 353 4 325 307 298 208 227 211 356 39 260 228 198 203 176 179 178 180 173 173 171 172 176 177 174 180 186 181 167 173 183 173 159 150 137
7 19 304 343 325 315 320 278 240 160 146 190 296 284 168 195 188 174 83 33 329 168 176 177 172 174 176 167 169 167 172 172 172 176 180 178 182 172 172 170 155 160 132 142
10 274 325 294 346 18 33 11 41 112 291 229 166 272 314 2 27 150 150 166 188 91 180 176 177 169 173 166 168 166 169 171 176 177 176 179 179 175 171 167 155 144 141 138
16 342 350 335 342 3 8 334 324 340 48 282 112 269 45 30 51 41 163 175 158 109 90 178 175 170 173 168 168 166 169 173 173 176 172 175 184 180 180 171 154 147 142 141
107 252 213 242 266 297 333 330 331 343 16 303 281 322 343 6 73 81 79 68 47 37 40 58 171 176 174 172 171 169 172 171 171 170 172 180 187 187 179 155 150 149 149 144
135 250 270 282 314 329 319 310 310 311 288 315 299 322 305 341 162 147 128 104 78 44 13 19 10 185 179 178 176 172 173 172 171 173 175 183 181 179 155 151 153 149 150 150
332 309 335 326 320 314 310 307 296 289 291 297 297 292 13 36 51 42 11 37 98 88 65 358 357 354 208 178 171 172 173 173 173 178 179 173 170 159 153 152 152 151 150 140
287 295 341 293 312 315 324 291 306 295 310 325 297 310 314 47 44 30 36 31 20 348 346 358 328 312 342 184 166 171 168 168 176 178 177 173 164 156 153 148 146 150 147 145
232 242 215 249 295 285 252 275 293 292 316 41 75 54 56 84 90 59 36 48 22 354 304 340 357 352 327 207 182 158 162 170 175 180 176 165 157 150 143 142 155 150 150 154
211 193 222 193 228 263 299 281 336 333 359 87 95 107 107 153 77 7 354 67 65 314 318 339 344 347 347 297 177 174 164 170 170 173 169 158 148 144 149 156 162 149 150 151
240 189 143 252 226 253 259 290 290 282 253 100 82 59 26 8 52 253 225 179 199 204 276 343 350 350 355 339 160 169 173 166 172 156 147 144 147 148 155 166 160 147 147 158
309 341 206 254 263 295 319 355 335 50 325 358 97 115 60 73 179 283 216 35 43 76 357 358 3 5 352 344 309 158 165 171 149 144 140 139 145 152 151 149 135 132 136 149
299 312 261 309 332 295 17 22 79 215 306 337 318 127 101 330 36 68 27 43 358 6 18 17 360 8 349 7 4 2 77 115 127 133 140 144 152 154 146 139 144 139 137 163
0 88 262 323 260 320 23 1 37 124 119 11 15 340 82 57 22 39 8 33 21 335 15 31 0 349 14 22 13 32 59 118 138 143 156 150 147 149 149 147 149 149 152 173
320 8 7 12 328 334 324 26 22 24 54 22 13 12 356 7 20 16 28 0 352 3 317 122 355 345 347 57 55 353 89 134 154 149 149 146 146 149 146 143 152 151 163 179
248 335 296 288 303 329 338 345 343 340 348 352 352 340 334 351 339 345 343 348 323 307 327 242 242 240 243 309 119 160 158 165 171 178 154 157 151 150 152 155 165 157 188 193
250 252 268 271 270 272 316 329 332 333 317 273 274 306 327 331 318 308 287 268 282 290 282 260 245 217 218 187 228 154 202 186 186 160 161 152 147 148 159 152 140 80 196 205